User: anonymous   Login
Location: Unspecified
(0.0000°N, 0.0000°E)
Time: 21:49:08
(UTC+01:00)
Language:

Tiangong 2 - Orbit

View from above orbital plane
View from above orbital plane
View from above satellite
View from above satellite

Ground track
Ground track

The orbit data is extracted from the following two-line orbital elements,

1 41765U 16057A   18016.44794624  .00004052  00000-0  53076-4 0  9994
2 41765  42.7814 167.1622 0004746 284.7554 173.2054 15.60121692 76279
Epoch (UTC): 16 January 2018 10:45:02
Eccentricity: 0.0004746
inclination: 42.7814°
perigee height: 384 km
apogee height: 390 km
right ascension of ascending node: 167.1622°
argument of perigee: 284.7554°
revolutions per day: 15.60121692
mean anomaly at epoch: 173.2054°
orbit number at epoch: 7627

The dashed part of the orbit path shows where the satellite is in the earth's shadow,  

DLR